Location: Sternwarte_Laufen
(47.9344°N, 12.9346°E)
Time: 16:09:20
(UTC+02:00)

ISS - Pass Details

Date: 07 May 2026
Orbit: 414 x 424 km, 51.6° (Epoch: 21 May)

Event Time Altitude Azimuth Distance (km) Brightness Sun altitude
Rises 21:39:19 0° 201° (SSW) 2,336 -0.2 -10.5°
Reaches altitude 10° 21:41:53 10° 180° (S) 1,479 -1.4 -10.9°
Enters shadow 21:43:22 16° 154° (SSE) 1,177 -2.1 -11.1°
